weather station
Area: 7197 km2
The highest point: Čupec (819 m.s.l.)
Total stations: 40
Stations online: 34
Stations offline: 6
Current weather
24°C

Meteorological map - weather stations in Jihomoravský

. The meteorological maps show weather information from WARIO weather stations

Weather stations Jihomoravský

 UpdatesNameStatusTemperatureHumidityWind speedWind direction
12.5.2018 23:59Boskovice10.9 °C98.0 %0.7 m/s N
20.6.2018 09:41Brno - Líšeň24.0 °C %0.0 m/s SW
20.6.2018 09:41Brno - Vinohrady23.3 °C65.0 %1.8 m/s NE
20.6.2018 09:41Brno - Komín23.5 °C49.7 %1.0 m/s S
20.6.2018 09:42Brno-Kníničky23.8 °C54.8 %1.1 m/s S
20.6.2018 09:42Býkovice20.7 °C75.7 %1.4 m/s SW
15.6.2018 15:59Bítov23.2 °C46.1 %1.9 m/s S
11.5.2018 07:55Diváky14.4 °C83.9 %0.0 m/s W
26.5.2018 00:59Drnholec13.2 °C99.3 %0.0 m/s S
29.5.2018 18:58Lelekovice22.1 °C66.0 %1.6 m/s N
20.6.2018 09:41Letonice22.3 °C65.3 %2.3 m/s NE
20.6.2018 09:42Hodonín26.7 °C58.2 %1.9 m/s NE
20.6.2018 09:41Brno23.0 °C55.7 %1.0 m/s N
20.6.2018 09:41Moravany25.1 °C51.3 %0.7 m/s NW
20.6.2018 09:42Pasohlávky25.2 °C54.7 %1.1 m/s S
20.6.2018 09:41Lesní Hluboké 19.9 °C71.9 %1.1 m/s SE
20.6.2018 09:41Vlasatice26.8 °C39.8 %1.3 m/s SW
20.6.2018 09:41Višňové24.8 °C61.1 %0.0 m/s W
20.6.2018 09:41Vranov21.2 °C66.0 %0.8 m/s SE
20.6.2018 09:42Dolní Dubňany23.3 °C56.6 %1.1 m/s SE
20.6.2018 09:41Bzenec30.1 °C38.9 %0.8 m/s E
20.6.2018 09:41Svatobořice23.1 °C56.6 %0.0 m/s NE
20.6.2018 09:42Moravské Bránice24.4 °C54.9 %0.6 m/s NW
20.6.2018 09:42Pohořelice27.3 °C52.4 %1.3 m/s NW
20.6.2018 09:41Brno - Jih24.0 °C49.3 %1.6 m/s SE
20.6.2018 09:42Rousínov23.4 °C52.9 %2.1 m/s SW
20.6.2018 09:42Senorady23.2 °C53.4 %0.7 m/s NW
20.6.2018 09:41Šerkovice20.5 °C76.3 %1.4 m/s SE
20.6.2018 09:42Kuřim22.4 °C64.3 %1.2 m/s E
20.6.2018 09:41Strážnice25.8 °C49.0 %0.0 m/s NE
20.6.2018 09:41Strážnice GUMEX22.5 °C58.6 %1.7 m/s W
20.6.2018 09:42Němčičky26.1 °C52.6 %0.0 m/s N
20.6.2018 09:41Valtice25.1 °C43.4 %1.5 m/s E
20.6.2018 09:42Velatice24.5 °C47.1 %1.1 m/s SE
20.6.2018 09:42Veselí nad Moravou LMK10922.6 °C64.1 %0.0 m/s W
20.6.2018 09:41Veselí nad Moravou28.3 °C35.6 %0.0 m/s SE
6.6.2018 14:56Strachotín25.2 °C63.2 %3.2 m/s NE
20.6.2018 09:42Vrbovec27.3 °C41.8 %0.9 m/s SE
20.6.2018 09:42Terezín26.5 °C43.8 %1.2 m/s NE
20.6.2018 09:41Brno - Královo Pole24.3 °C100.0 %0.0 m/s W
Email notifications
Enter your email address to subscribe to notifications about news at warioweather.com. Your email address will not be used for any purpose other than sending these emails and will not be provided to any third party. The subscription can be ended at any time.
All data are only indicative. The portal administrator has no responsibility for potentially incorrect data and related consequences. Publishing or further sharing of content from www.warioweather.com is only allowed with written consent from WANET s.r.o.